Home   Weather   Arnsberg   Past weeks

Flag for Germany Past Weather in Arnsberg, North Rhine-Westphalia, Germany — Yesterday and Last 2 Weeks

Now
41 °F

Passing clouds.


Feels Like: 39 °F
Forecast: 35 / 59 °F
Wind: 3 mph from West

Location: Paderborn / Lippstadt

Current Time: Apr 29, 2017 at 3:49:25 am

Latest Report: Apr 29, 2017 at 2:50 am


Visibility: N/A

Pressure: 30.01 "Hg

Humidity: 87%

Dew Point: 37 °F

Location of ArnsbergLocation

Past Weather in Arnsberg — Graph

°F

Arnsberg Temperature Yesterday

Maximum temperature yesterday: 52 °F (at 3:50 pm)
Minimum temperature yesterday: 30 °F (at 5:50 am)
Average temperature yesterday: 43 °F

High & Low Weather Summary for the Past Weeks

 TemperatureHumidityPressure
High55 °F (Apr 24, 12:20 pm)100% (Apr 22, 3:50 am)30.60 "Hg (Apr 22, 3:50 am)
Low27 °F (Apr 20, 5:50 am)30% (Apr 27, 3:50 pm)29.62 "Hg (Apr 25, 3:50 am)
Average43 °F64%30.11 "Hg
* Reported Apr 19 8:50 am — Apr 29 2:20 am, Arnsberg, Weather by CustomWeather, © 2017

Note: Actual official high and low records may vary slightly from our data, if they occured in-between our weather recording intervals... More about our weather records

Advertising

Arnsberg Weather History for the Previous 24 Hours

Scroll right to see more
 ConditionsComfort  
Time TempWeatherWind HumidityBarometerVisibility
2:20 am
Sat, Apr 29
43 °FPassing clouds.5 mph87%30.01 "HgN/A
1:50 am43 °FPassing clouds.6 mph81%30.01 "HgN/A
1:20 am43 °FPassing clouds.6 mph81%29.98 "HgN/A
12:50 am45 °FPassing clouds.5 mph76%29.98 "HgN/A
12:20 am43 °FPassing clouds.6 mph87%29.98 "HgN/A
11:50 pm
Fri, Apr 28
43 °FPassing clouds.6 mph87%29.98 "HgN/A
10:50 pm45 °FSprinkles. Passing clouds.8 mph76%29.98 "HgN/A
10:20 pm43 °FPassing clouds.7 mph87%29.98 "HgN/A
9:20 pm45 °FSprinkles. Partly cloudy.7 mph81%29.95 "HgN/A
8:50 pm46 °FScattered showers. Partly cloudy.8 mph66%29.95 "HgN/A
8:20 pm48 °FScattered clouds.6 mph62%29.95 "HgN/A
7:50 pm46 °FScattered clouds.5 mph66%29.92 "HgN/A
7:20 pm48 °FScattered clouds.8 mph62%29.92 "HgN/A
6:50 pm50 °FScattered clouds.7 mph54%29.92 "HgN/A
6:20 pm52 °FScattered clouds.8 mph47%29.92 "HgN/A
5:50 pm50 °FPassing clouds.8 mph50%29.92 "HgN/A
5:20 pm50 °FPassing clouds.8 mph50%29.92 "HgN/A
4:50 pm50 °FBroken clouds.8 mph47%29.92 "HgN/A
4:20 pm52 °FBroken clouds.6 mph47%29.92 "HgN/A
3:50 pm52 °FPartly sunny.7 mph47%29.92 "HgN/A
3:20 pm50 °FPartly sunny.8 mph47%29.92 "HgN/A
2:50 pm50 °FPartly sunny.8 mph50%29.92 "HgN/A
2:20 pm50 °FPartly sunny.6 mph47%29.92 "HgN/A
1:50 pm50 °FPartly sunny.8 mph47%29.92 "HgN/A
1:20 pm48 °FBroken clouds.7 mph50%29.92 "HgN/A
12:50 pm48 °FScattered clouds.8 mph54%29.92 "HgN/A
12:20 pm48 °FScattered clouds.7 mph50%29.92 "HgN/A
11:50 am46 °FScattered clouds.8 mph53%29.92 "HgN/A
11:20 am46 °FScattered clouds.8 mph53%29.92 "HgN/A
10:50 am46 °FScattered clouds.8 mph57%29.92 "HgN/A
10:20 am46 °FPassing clouds.7 mph53%29.92 "HgN/A
9:20 am43 °FSunny.7 mph61%29.92 "Hg10 mi
8:50 am41 °FSunny.6 mph66%29.92 "Hg10 mi
8:20 am39 °FPassing clouds.7 mph70%29.92 "HgN/A
7:50 am39 °FScattered clouds.6 mph70%29.92 "HgN/A
7:20 am37 °FScattered clouds.1 mph75%29.92 "HgN/A
6:50 am36 °FScattered clouds.3 mph75%29.92 "HgN/A
6:20 am36 °FSunny.6 mph75%29.92 "Hg10 mi
5:50 am30 °FPassing clouds.3 mph86%29.92 "HgN/A
5:20 am32 °FPassing clouds.3 mph80%29.95 "HgN/A
4:50 am32 °FClear.2 mph87%29.95 "Hg10 mi
4:20 am34 °FPassing clouds.5 mph81%29.95 "HgN/A
3:20 am34 °FClear.6 mph81%29.95 "Hg10 mi
Weather by CustomWeather, © 2017

See weather overviewHow to use our weather pages